Terminal Aerodrome Forecast
Issued by NWS Chicago, IL

Home | Current Version | Previous Version | Graphics & Text | Print | Product List | Glossary On
Versions: 1 2 3 4 5 6 7 8 9 10 11 12 13 14 15 16 17 18 19 20 21 22 23 24 25 26 27 28 29 30 31 32 33 34 35 36
000
FTUS43 KLOT 011100
TAFRFD
TAF
KRFD 011139Z 0112/0212 12005KT P6SM FEW025 SCT250
     FM011500 13010KT P6SM BKN250
     FM020100 15008KT P6SM SCT150 BKN250
     FM020300 15007KT P6SM VCSH SCT050 BKN120
     FM020500 16006KT 6SM -SHRA BKN050 PROB30 0206/0209 5SM -TSRA
      BKN035CB=

USA.gov is the U.S. government's official web portal to all federal, state and local government web resources and services.